^^
Datos históricos de la estación: Murcia-Puente Tocinos
Diario Informe para Mayo 29, 2019 Unidades:  Métrico    Inglés   Ambas
Diario Semanal Mensual Anual Configurable
  Máximo: Mínimo: Media:
Temperatura: 23.2 °C 16.8 °C 20 °C
Punto de rocio: 15.9 °C 6.1 °C 11.9 °C
Humedad: 86% 40% 62%
Velocidad viento: 19.0km/h 0.0km/h 8.4km/h
Racha viento: 35.2km/h - -
Viento- - East
Presión: 1022.2 hPa 1015.5 hPa -
Precipitación: 0.0 mm    
Historical Graphs
 
 
Tabla de datos para Mayo 29, 2019
Hora Temperatura Punto de rocio Presión Viento Velocidad viento Racha viento Humedad Intensidad lluvia(por hora) Nubes
00:04 18.7 °C 15.9 °C 1015.5 hPa NE 10.0 km/h 13.0 km/h 84% 0.0 mm CLR
00:09 18.7 °C 15.9 °C 1015.5 hPa NE 9.5 km/h 11.1 km/h 84% 0.0 mm CLR
00:14 18.7 °C 15.9 °C 1015.5 hPa NE 9.5 km/h 11.1 km/h 84% 0.0 mm CLR
00:19 18.6 °C 15.8 °C 1015.5 hPa NE 7.6 km/h 9.3 km/h 84% 0.0 mm CLR
00:24 18.6 °C 15.8 °C 1015.5 hPa NNE 7.6 km/h 7.4 km/h 84% 0.0 mm CLR
00:29 18.6 °C 15.8 °C 1015.5 hPa North 5.8 km/h 9.3 km/h 84% 0.0 mm CLR
00:34 18.6 °C 15.8 °C 1015.6 hPa NNE 5.8 km/h 7.4 km/h 84% 0.0 mm CLR
00:39 18.6 °C 15.8 °C 1015.6 hPa NNE 5.0 km/h 9.3 km/h 84% 0.0 mm CLR
00:44 18.6 °C 15.8 °C 1015.6 hPa NE 5.0 km/h 7.4 km/h 84% 0.0 mm CLR
00:49 18.6 °C 15.8 °C 1015.6 hPa NNE 4.7 km/h 7.4 km/h 84% 0.0 mm CLR
00:54 18.6 °C 15.8 °C 1015.6 hPa NE 4.7 km/h 5.6 km/h 84% 0.0 mm CLR
00:59 18.6 °C 15.7 °C 1015.6 hPa NE 3.9 km/h 9.3 km/h 83% 0.0 mm CLR
01:04 18.6 °C 15.7 °C 1015.7 hPa ENE 3.9 km/h 7.6 km/h 83% 0.0 mm CLR
01:09 18.6 °C 15.7 °C 1015.7 hPa ENE 5.8 km/h 8.4 km/h 83% 0.0 mm CLR
01:14 18.6 °C 15.7 °C 1015.7 hPa NE 5.8 km/h 7.4 km/h 83% 0.0 mm CLR
01:19 18.6 °C 15.7 °C 1015.7 hPa East 5.8 km/h 7.4 km/h 83% 0.0 mm CLR
01:24 18.7 °C 15.8 °C 1015.7 hPa East 5.8 km/h 9.3 km/h 83% 0.0 mm CLR
01:29 18.7 °C 15.8 °C 1015.7 hPa NNW 3.9 km/h 7.4 km/h 83% 0.0 mm CLR
01:34 18.7 °C 15.6 °C 1015.9 hPa NE 3.9 km/h 7.4 km/h 82% 0.0 mm CLR
01:39 18.7 °C 15.6 °C 1015.9 hPa North 3.2 km/h 3.7 km/h 82% 0.0 mm CLR
01:44 18.7 °C 15.6 °C 1015.9 hPa North 3.2 km/h 3.7 km/h 82% 0.0 mm CLR
01:49 18.7 °C 15.6 °C 1015.9 hPa NNW 2.9 km/h 5.6 km/h 82% 0.0 mm CLR
01:54 18.7 °C 15.6 °C 1015.9 hPa NNW 2.9 km/h 6.4 km/h 82% 0.0 mm CLR
01:59 18.6 °C 15.4 °C 1015.9 hPa NNW 2.9 km/h 4.7 km/h 82% 0.0 mm CLR
02:04 18.6 °C 15.7 °C 1016.0 hPa NNW 2.9 km/h 5.6 km/h 83% 0.0 mm CLR
02:09 18.6 °C 15.7 °C 1016.0 hPa NNW 3.2 km/h 3.7 km/h 83% 0.0 mm CLR
02:14 18.6 °C 15.7 °C 1016.0 hPa NNW 3.2 km/h 5.6 km/h 83% 0.0 mm CLR
02:19 18.6 °C 15.7 °C 1016.0 hPa NNW 2.3 km/h 1.9 km/h 83% 0.0 mm CLR
02:24 18.6 °C 15.7 °C 1016.0 hPa NNW 2.3 km/h 3.7 km/h 83% 0.0 mm CLR
02:29 18.6 °C 15.7 °C 1016.0 hPa Calm     83% 0.0 mm CLR
02:34 18.6 °C 15.7 °C 1016.0 hPa Calm   3.9 km/h 83% 0.0 mm CLR
02:39 18.6 °C 15.7 °C 1016.0 hPa Calm     83% 0.0 mm CLR
02:44 18.6 °C 15.4 °C 1016.0 hPa Calm   5.6 km/h 82% 0.0 mm CLR
02:49 18.7 °C 15.6 °C 1015.9 hPa NNW 2.3 km/h 5.6 km/h 82% 0.0 mm CLR
02:54 18.7 °C 15.6 °C 1015.9 hPa NNW 2.3 km/h   82% 0.0 mm CLR
02:59 18.7 °C 15.6 °C 1015.9 hPa Calm   3.7 km/h 82% 0.0 mm CLR
03:04 18.7 °C 15.4 °C 1016.0 hPa Calm   5.6 km/h 81% 0.0 mm CLR
03:09 18.8 °C 15.4 °C 1016.0 hPa West 2.9 km/h 5.6 km/h 81% 0.0 mm CLR
03:14 18.7 °C 15.4 °C 1016.0 hPa West 2.9 km/h 5.6 km/h 81% 0.0 mm CLR
03:19 18.7 °C 15.2 °C 1016.0 hPa SSW 3.2 km/h 6.9 km/h 80% 0.0 mm CLR
03:24 18.7 °C 15.4 °C 1016.0 hPa South 3.2 km/h 5.6 km/h 81% 0.0 mm CLR
03:29 18.7 °C 15.6 °C 1016.0 hPa South 3.9 km/h 5.6 km/h 82% 0.0 mm CLR
03:34 18.6 °C 15.3 °C 1016.1 hPa South 3.9 km/h 3.7 km/h 81% 0.0 mm CLR
03:39 18.5 °C 15.4 °C 1016.1 hPa Calm     82% 0.0 mm CLR
03:44 18.4 °C 15.3 °C 1016.1 hPa Calm     82% 0.0 mm CLR
03:49 18.4 °C 15.3 °C 1016.2 hPa Calm     82% 0.0 mm CLR
03:54 18.3 °C 15.4 °C 1016.2 hPa Calm     83% 0.0 mm CLR
03:59 18.3 °C 15.4 °C 1016.2 hPa Calm   7.4 km/h 83% 0.0 mm CLR
04:04 18.3 °C 15.6 °C 1016.4 hPa Calm   5.0 km/h 84% 0.0 mm CLR
04:09 18.3 °C 15.6 °C 1016.4 hPa West 3.9 km/h 5.6 km/h 84% 0.0 mm CLR
04:14 18.3 °C 15.6 °C 1016.4 hPa SW 3.9 km/h 7.4 km/h 84% 0.0 mm CLR
04:19 18.3 °C 15.6 °C 1016.5 hPa WSW 4.7 km/h 9.5 km/h 84% 0.0 mm CLR
04:24 18.3 °C 15.6 °C 1016.5 hPa West 4.7 km/h 9.3 km/h 84% 0.0 mm CLR
04:29 18.3 °C 15.6 °C 1016.5 hPa WSW 5.8 km/h 7.4 km/h 84% 0.0 mm CLR
04:34 18.3 °C 15.6 °C 1016.5 hPa SSW 5.8 km/h 11.1 km/h 84% 0.0 mm CLR
04:39 18.2 °C 15.4 °C 1016.5 hPa SSW 6.4 km/h 9.3 km/h 84% 0.0 mm CLR
04:44 18.2 °C 15.4 °C 1016.5 hPa SW 6.4 km/h 9.3 km/h 84% 0.0 mm CLR
04:49 18.2 °C 15.4 °C 1016.5 hPa WSW 5.8 km/h 7.4 km/h 84% 0.0 mm CLR
04:54 18.2 °C 15.4 °C 1016.5 hPa WSW 5.8 km/h 7.4 km/h 84% 0.0 mm CLR
04:59 18.2 °C 15.4 °C 1016.5 hPa WSW 3.2 km/h 5.6 km/h 84% 0.0 mm CLR
05:04 18.2 °C 15.4 °C 1016.6 hPa SW 3.2 km/h 5.6 km/h 84% 0.0 mm CLR
05:09 18.2 °C 15.4 °C 1016.6 hPa SW 2.9 km/h 1.9 km/h 84% 0.0 mm CLR
05:14 18.2 °C 15.4 °C 1016.6 hPa SW 2.9 km/h 3.7 km/h 84% 0.0 mm CLR
05:19 18.2 °C 15.4 °C 1016.7 hPa WSW 2.9 km/h 5.6 km/h 84% 0.0 mm CLR
05:24 18.1 °C 15.3 °C 1016.7 hPa WSW 2.9 km/h 7.4 km/h 84% 0.0 mm CLR
05:29 18.1 °C 15.3 °C 1016.7 hPa WSW 3.2 km/h 7.4 km/h 84% 0.0 mm CLR
05:34 18.1 °C 15.3 °C 1016.7 hPa WSW 3.2 km/h 7.4 km/h 84% 0.0 mm CLR
05:39 18.0 °C 15.3 °C 1016.7 hPa South 3.9 km/h 6.4 km/h 84% 0.0 mm CLR
05:44 17.9 °C 15.2 °C 1016.7 hPa South 3.9 km/h 7.4 km/h 84% 0.0 mm CLR
05:49 17.9 °C 15.3 °C 1016.7 hPa SSE 5.0 km/h 7.4 km/h 85% 0.0 mm CLR
05:54 17.8 °C 15.2 °C 1016.7 hPa SSW 5.0 km/h 7.4 km/h 85% 0.0 mm CLR
05:59 17.8 °C 15.2 °C 1016.7 hPa South 5.0 km/h 5.6 km/h 85% 0.0 mm CLR
06:04 17.8 °C 15.2 °C 1016.8 hPa South 5.0 km/h 7.4 km/h 85% 0.0 mm CLR
06:09 17.8 °C 15.2 °C 1016.8 hPa SSE 3.9 km/h 6.4 km/h 85% 0.0 mm CLR
06:14 17.8 °C 15.2 °C 1016.8 hPa South 3.9 km/h 3.9 km/h 85% 0.0 mm CLR
06:19 17.8 °C 15.1 °C 1017.0 hPa South 3.9 km/h   84% 0.0 mm CLR
06:24 17.7 °C 14.9 °C 1017.0 hPa SSE 3.9 km/h 5.6 km/h 84% 0.0 mm CLR
06:29 17.6 °C 14.9 °C 1017.0 hPa SSE 2.3 km/h 3.9 km/h 84% 0.0 mm CLR
06:34 17.5 °C 14.8 °C 1017.0 hPa SSE 2.3 km/h 1.9 km/h 84% 0.0 mm CLR
06:39 17.4 °C 14.7 °C 1017.0 hPa Calm   7.4 km/h 84% 0.0 mm CLR
06:44 17.2 °C 14.7 °C 1017.0 hPa Calm     85% 0.0 mm CLR
06:49 17.1 °C 14.6 °C 1017.2 hPa ESE 2.9 km/h   85% 0.0 mm CLR
06:54 17.1 °C 14.7 °C 1017.2 hPa ESE 2.9 km/h   86% 0.0 mm CLR
06:59 17.1 °C 14.6 °C 1017.2 hPa Calm     85% 0.0 mm CLR
07:04 17.0 °C 14.4 °C 1017.5 hPa Calm     85% 0.0 mm CLR
07:09 16.9 °C 14.3 °C 1017.5 hPa Calm     85% 0.0 mm CLR
07:14 16.9 °C 14.3 °C 1017.5 hPa Calm     85% 0.0 mm CLR
07:19 16.8 °C 14.4 °C 1017.5 hPa Calm     86% 0.0 mm CLR
07:24 16.9 °C 14.6 °C 1017.5 hPa Calm     86% 0.0 mm CLR
07:29 17.0 °C 14.7 °C 1017.5 hPa Calm     86% 0.0 mm CLR
07:34 17.1 °C 14.7 °C 1017.8 hPa Calm   5.0 km/h 86% 0.0 mm CLR
07:39 17.3 °C 14.9 °C 1017.8 hPa Calm   3.2 km/h 86% 0.0 mm CLR
07:44 17.6 °C 15.1 °C 1017.8 hPa Calm   5.8 km/h 85% 0.0 mm CLR
07:49 17.6 °C 14.9 °C 1018.1 hPa ENE 2.9 km/h 3.7 km/h 84% 0.0 mm CLR
07:54 17.8 °C 14.9 °C 1018.1 hPa NE 2.9 km/h 5.6 km/h 83% 0.0 mm CLR
07:59 17.8 °C 14.7 °C 1018.1 hPa ESE 2.9 km/h 7.4 km/h 82% 0.0 mm CLR
08:04 17.7 °C 14.6 °C 1018.3 hPa ESE 2.9 km/h 7.4 km/h 82% 0.0 mm CLR
08:09 17.6 °C 14.7 °C 1018.3 hPa ESE 3.9 km/h 7.4 km/h 83% 0.0 mm CLR
08:14 17.7 °C 14.8 °C 1018.3 hPa NE 3.9 km/h 8.4 km/h 83% 0.0 mm CLR
08:19 17.8 °C 14.9 °C 1018.4 hPa NE 4.7 km/h 4.7 km/h 83% 0.0 mm CLR
08:24 18.1 °C 15.2 °C 1018.4 hPa ENE 4.7 km/h 5.8 km/h 83% 0.0 mm CLR
08:29 18.2 °C 15.1 °C 1018.4 hPa ENE 3.2 km/h 7.4 km/h 82% 0.0 mm CLR
08:34 18.4 °C 15.3 °C 1018.6 hPa NNE 3.2 km/h 5.0 km/h 82% 0.0 mm CLR
08:39 18.7 °C 15.4 °C 1018.6 hPa North 3.2 km/h 4.7 km/h 81% 0.0 mm CLR
08:44 18.9 °C 15.2 °C 1018.6 hPa North 3.2 km/h 5.6 km/h 79% 0.0 mm CLR
08:49 19.1 °C 14.9 °C 1018.7 hPa NNE 2.9 km/h 7.4 km/h 77% 0.0 mm CLR
08:54 18.9 °C 14.2 °C 1018.7 hPa ENE 2.9 km/h 9.3 km/h 74% 0.0 mm CLR
08:59 18.8 °C 13.7 °C 1018.7 hPa NE 5.8 km/h 11.1 km/h 72% 0.0 mm CLR
09:04 18.7 °C 13.6 °C 1018.7 hPa NNE 5.8 km/h 13.0 km/h 72% 0.0 mm CLR
09:09 18.8 °C 13.2 °C 1018.7 hPa NNE 8.4 km/h 16.7 km/h 70% 0.0 mm CLR
09:14 18.8 °C 13.2 °C 1018.7 hPa NE 8.4 km/h 16.7 km/h 70% 0.0 mm CLR
09:19 18.9 °C 12.6 °C 1018.9 hPa NE 8.7 km/h 13.7 km/h 67% 0.0 mm CLR
09:24 19.0 °C 12.5 °C 1018.9 hPa NNE 8.7 km/h 12.2 km/h 66% 0.0 mm CLR
09:29 19.1 °C 11.4 °C 1018.9 hPa NE 9.5 km/h 20.4 km/h 61% 0.0 mm CLR
09:34 19.2 °C 11.7 °C 1019.0 hPa ENE 9.5 km/h 11.1 km/h 62% 0.0 mm CLR
09:39 19.3 °C 12.1 °C 1019.0 hPa NE 10.0 km/h 15.6 km/h 63% 0.0 mm CLR
09:44 19.4 °C 11.4 °C 1019.0 hPa NE 10.0 km/h 20.4 km/h 60% 0.0 mm CLR
09:49 19.6 °C 10.8 °C 1019.2 hPa NE 11.1 km/h 18.5 km/h 57% 0.0 mm CLR
09:54 19.9 °C 10.8 °C 1019.2 hPa NNE 11.1 km/h 14.8 km/h 56% 0.0 mm CLR
09:59 20.2 °C 10.9 °C 1019.2 hPa NE 10.3 km/h 18.5 km/h 55% 0.0 mm CLR
10:04 20.2 °C 11.1 °C 1019.1 hPa NE 10.3 km/h 18.5 km/h 56% 0.0 mm CLR
10:09 20.3 °C 11.2 °C 1019.1 hPa NNE 10.0 km/h 16.7 km/h 56% 0.0 mm CLR
10:14 20.4 °C 11.1 °C 1019.1 hPa East 10.0 km/h 14.8 km/h 55% 0.0 mm CLR
10:19 20.4 °C 11.1 °C 1019.0 hPa East 9.5 km/h 14.8 km/h 55% 0.0 mm CLR
10:24 20.4 °C 11.1 °C 1019.0 hPa ENE 9.5 km/h 11.1 km/h 55% 0.0 mm CLR
10:29 20.4 °C 10.5 °C 1019.0 hPa ENE 10.3 km/h 18.5 km/h 53% 0.0 mm CLR
10:34 20.4 °C 10.5 °C 1019.0 hPa NE 10.3 km/h 18.5 km/h 53% 0.0 mm CLR
10:39 20.5 °C 10.9 °C 1019.0 hPa NNE 10.0 km/h 13.0 km/h 54% 0.0 mm CLR
10:44 20.8 °C 10.6 °C 1019.0 hPa ENE 10.0 km/h 14.8 km/h 52% 0.0 mm CLR
10:49 20.9 °C 10.7 °C 1019.0 hPa ENE 9.5 km/h 14.8 km/h 52% 0.0 mm CLR
10:54 20.8 °C 10.6 °C 1019.0 hPa NW 9.5 km/h 18.5 km/h 52% 0.0 mm CLR
10:59 20.9 °C 10.9 °C 1019.0 hPa SE 10.3 km/h 22.2 km/h 53% 0.0 mm CLR
11:04 20.9 °C 10.7 °C 1019.0 hPa NNE 10.3 km/h 18.5 km/h 52% 0.0 mm CLR
11:09 20.9 °C 10.7 °C 1019.0 hPa ENE 11.9 km/h 13.0 km/h 52% 0.0 mm CLR
11:14 21.0 °C 10.8 °C 1019.0 hPa ENE 11.9 km/h 22.2 km/h 52% 0.0 mm CLR
11:19 21.0 °C 10.8 °C 1019.2 hPa NNW 10.3 km/h 13.0 km/h 52% 0.0 mm CLR
11:24 21.1 °C 11.2 °C 1019.2 hPa NE 10.3 km/h 16.7 km/h 53% 0.0 mm CLR
11:29 21.1 °C 10.8 °C 1019.2 hPa NNE 10.3 km/h 22.2 km/h 52% 0.0 mm CLR
11:34 20.9 °C 10.7 °C 1019.1 hPa ENE 10.3 km/h 14.8 km/h 52% 0.0 mm CLR
11:39 20.9 °C 10.7 °C 1019.1 hPa North 12.2 km/h 13.0 km/h 52% 0.0 mm CLR
11:44 21.1 °C 10.6 °C 1019.1 hPa NNE 12.2 km/h 9.3 km/h 51% 0.0 mm CLR
11:49 21.4 °C 10.8 °C 1018.9 hPa ENE 6.4 km/h 7.4 km/h 51% 0.0 mm CLR
11:54 21.7 °C 10.5 °C 1018.9 hPa NNE 6.4 km/h 11.1 km/h 49% 0.0 mm CLR
11:59 21.6 °C 10.7 °C 1018.9 hPa NNW 6.4 km/h 14.8 km/h 50% 0.0 mm CLR
12:04 21.7 °C 10.8 °C 1019.0 hPa North 6.4 km/h 9.3 km/h 50% 0.0 mm CLR
12:09 22.1 °C 11.2 °C 1019.0 hPa NNW 6.4 km/h 13.0 km/h 50% 0.0 mm CLR
12:14 22.1 °C 11.2 °C 1019.0 hPa East 6.4 km/h 11.1 km/h 50% 0.0 mm CLR
12:19 21.8 °C 11.2 °C 1018.9 hPa NNE 8.7 km/h 13.0 km/h 51% 0.0 mm CLR
12:24 21.8 °C 11.5 °C 1018.9 hPa NNE 8.7 km/h 20.4 km/h 52% 0.0 mm CLR
12:29 21.8 °C 11.5 °C 1018.9 hPa NE 10.3 km/h 20.4 km/h 52% 0.0 mm CLR
12:34 21.8 °C 11.5 °C 1018.9 hPa ENE 10.3 km/h 20.4 km/h 52% 0.0 mm CLR
12:39 21.9 °C 11.6 °C 1018.9 hPa NE 11.1 km/h 13.0 km/h 52% 0.0 mm CLR
12:44 21.9 °C 11.3 °C 1018.9 hPa ENE 11.1 km/h 20.4 km/h 51% 0.0 mm CLR
12:49 22.0 °C 11.4 °C 1019.0 hPa NNE 11.1 km/h 20.4 km/h 51% 0.0 mm CLR
12:54 22.2 °C 11.6 °C 1019.0 hPa NE 11.1 km/h 20.1 km/h 51% 0.0 mm CLR
12:59 22.1 °C 11.5 °C 1019.0 hPa NE 14.0 km/h 14.8 km/h 51% 0.0 mm CLR
13:04 22.4 °C 11.4 °C 1018.8 hPa NNE 14.0 km/h 19.8 km/h 50% 0.0 mm CLR
13:09 22.2 °C 11.3 °C 1018.8 hPa NE 11.9 km/h 20.4 km/h 50% 0.0 mm CLR
13:14 22.2 °C 11.6 °C 1018.8 hPa NE 11.9 km/h 7.6 km/h 51% 0.0 mm CLR
13:19 22.4 °C 11.4 °C 1018.6 hPa North 7.6 km/h 7.4 km/h 50% 0.0 mm CLR
13:24 22.2 °C 11.3 °C 1018.6 hPa NE 7.6 km/h 24.1 km/h 50% 0.0 mm CLR
13:29 22.2 °C 11.3 °C 1018.6 hPa NNE 13.0 km/h 14.8 km/h 50% 0.0 mm CLR
13:34 22.3 °C 11.1 °C 1018.5 hPa NNE 13.0 km/h 16.4 km/h 49% 0.0 mm CLR
13:39 22.4 °C 11.2 °C 1018.5 hPa ENE 10.3 km/h 21.7 km/h 49% 0.0 mm CLR
13:44 22.4 °C 11.2 °C 1018.5 hPa East 10.3 km/h 13.0 km/h 49% 0.0 mm CLR
13:49 22.4 °C 11.2 °C 1018.4 hPa North 11.1 km/h 22.2 km/h 49% 0.0 mm CLR
13:54 22.6 °C 11.3 °C 1018.4 hPa East 11.1 km/h 14.8 km/h 49% 0.0 mm CLR
13:59 22.7 °C 11.1 °C 1018.4 hPa NNE 10.0 km/h 18.5 km/h 48% 0.0 mm CLR
14:04 22.8 °C 11.2 °C 1018.2 hPa NE 10.0 km/h 24.1 km/h 48% 0.0 mm CLR
14:09 22.9 °C 11.0 °C 1018.2 hPa East 11.9 km/h 20.4 km/h 47% 0.0 mm CLR
14:14 23.2 °C 11.3 °C 1018.2 hPa ENE 11.9 km/h 16.7 km/h 47% 0.0 mm CLR
14:19 23.2 °C 11.3 °C 1018.2 hPa NE 10.3 km/h 14.8 km/h 47% 0.0 mm CLR
14:24 23.2 °C 11.3 °C 1018.2 hPa NE 10.3 km/h 24.1 km/h 47% 0.0 mm CLR
14:29 23.0 °C 10.8 °C 1018.2 hPa North 12.2 km/h 29.8 km/h 46% 0.0 mm CLR
14:34 22.8 °C 10.9 °C 1018.2 hPa East 12.2 km/h 24.1 km/h 47% 0.0 mm CLR
14:39 23.2 °C 10.6 °C 1018.2 hPa SE 17.2 km/h 14.8 km/h 45% 0.0 mm CLR
14:44 23.0 °C 10.8 °C 1018.2 hPa NE 17.2 km/h 25.9 km/h 46% 0.0 mm CLR
14:49 22.7 °C 10.5 °C 1018.1 hPa ENE 14.8 km/h 20.4 km/h 46% 0.0 mm CLR
14:54 22.6 °C 10.7 °C 1018.1 hPa NE 14.8 km/h 33.3 km/h 47% 0.0 mm CLR
14:59 22.6 °C 10.7 °C 1018.1 hPa ESE 19.0 km/h 25.9 km/h 47% 0.0 mm CLR
15:04 22.5 °C 10.6 °C 1018.2 hPa NE 19.0 km/h 29.6 km/h 47% 0.0 mm CLR
15:09 22.2 °C 10.7 °C 1018.2 hPa SE 18.0 km/h 24.1 km/h 48% 0.0 mm CLR
15:14 22.4 °C 10.6 °C 1018.2 hPa NE 18.0 km/h 35.2 km/h 47% 0.0 mm CLR
15:19 22.3 °C 10.4 °C 1018.3 hPa ENE 16.4 km/h 22.0 km/h 47% 0.0 mm CLR
15:24 22.3 °C 10.4 °C 1018.3 hPa NE 16.4 km/h 18.5 km/h 47% 0.0 mm CLR
15:29 22.3 °C 10.1 °C 1018.3 hPa NE 16.4 km/h 24.1 km/h 46% 0.0 mm CLR
15:34 22.2 °C 10.3 °C 1018.4 hPa NE 16.4 km/h 29.6 km/h 47% 0.0 mm CLR
15:39 22.2 °C 10.3 °C 1018.4 hPa ENE 18.0 km/h 24.1 km/h 47% 0.0 mm CLR
15:44 21.9 °C 9.8 °C 1018.4 hPa NE 18.0 km/h 33.3 km/h 46% 0.0 mm CLR
15:49 22.0 °C 10.2 °C 1018.3 hPa ENE 19.0 km/h 24.5 km/h 47% 0.0 mm CLR
15:54 22.2 °C 10.0 °C 1018.3 hPa NNE 19.0 km/h 29.6 km/h 46% 0.0 mm CLR
15:59 22.1 °C 9.9 °C 1018.3 hPa NNE 18.3 km/h 27.8 km/h 46% 0.0 mm CLR
16:04 22.1 °C 9.6 °C 1018.5 hPa NE 18.3 km/h 25.9 km/h 45% 0.0 mm CLR
16:09 22.2 °C 9.7 °C 1018.5 hPa NE 16.4 km/h 20.9 km/h 45% 0.0 mm CLR
16:14 22.1 °C 9.9 °C 1018.5 hPa East 16.4 km/h 29.6 km/h 46% 0.0 mm CLR
16:19 22.2 °C 9.7 °C 1018.5 hPa NE 15.6 km/h 27.8 km/h 45% 0.0 mm CLR
16:24 22.2 °C 9.7 °C 1018.5 hPa North 15.6 km/h 22.2 km/h 45% 0.0 mm CLR
16:29 22.1 °C 9.6 °C 1018.5 hPa NE 14.8 km/h 29.6 km/h 45% 0.0 mm CLR
16:34 21.9 °C 9.8 °C 1018.5 hPa East 14.8 km/h 27.8 km/h 46% 0.0 mm CLR
16:39 21.9 °C 9.4 °C 1018.5 hPa ENE 18.3 km/h 31.5 km/h 45% 0.0 mm CLR
16:44 21.7 °C 9.6 °C 1018.5 hPa NE 18.3 km/h 29.6 km/h 46% 0.0 mm CLR
16:49 21.9 °C 9.8 °C 1018.5 hPa ENE 18.0 km/h 18.5 km/h 46% 0.0 mm CLR
16:54 21.8 °C 9.3 °C 1018.5 hPa NE 18.0 km/h 27.8 km/h 45% 0.0 mm CLR
16:59 21.5 °C 9.4 °C 1018.5 hPa NNE 18.0 km/h 24.1 km/h 46% 0.0 mm CLR
17:04 21.7 °C 9.2 °C 1018.5 hPa NE 18.0 km/h 29.6 km/h 45% 0.0 mm CLR
17:09 21.8 °C 9.0 °C 1018.5 hPa East 15.6 km/h 24.1 km/h 44% 0.0 mm CLR
17:14 21.9 °C 8.7 °C 1018.5 hPa NE 15.6 km/h 25.9 km/h 43% 0.0 mm CLR
17:19 22.0 °C 8.8 °C 1018.5 hPa NE 13.7 km/h 16.7 km/h 43% 0.0 mm CLR
17:24 22.0 °C 8.5 °C 1018.5 hPa ENE 13.7 km/h 27.8 km/h 42% 0.0 mm CLR
17:29 22.0 °C 8.5 °C 1018.5 hPa ESE 13.7 km/h 18.5 km/h 42% 0.0 mm CLR
17:34 22.1 °C 8.9 °C 1018.5 hPa NNE 13.7 km/h 22.2 km/h 43% 0.0 mm CLR
17:39 22.1 °C 8.6 °C 1018.5 hPa East 14.0 km/h 20.9 km/h 42% 0.0 mm CLR
17:44 22.1 °C 8.6 °C 1018.5 hPa NE 14.0 km/h 22.2 km/h 42% 0.0 mm CLR
17:49 22.1 °C 8.2 °C 1018.5 hPa ESE 14.0 km/h 24.1 km/h 41% 0.0 mm CLR
17:54 22.2 °C 8.7 °C 1018.5 hPa NE 14.0 km/h 22.2 km/h 42% 0.0 mm CLR
17:59 22.2 °C 8.3 °C 1018.5 hPa ENE 13.7 km/h 20.4 km/h 41% 0.0 mm CLR
18:04 21.9 °C 8.1 °C 1018.5 hPa NE 13.7 km/h 26.2 km/h 41% 0.0 mm CLR
18:09 21.9 °C 8.1 °C 1018.5 hPa ENE 16.1 km/h 25.9 km/h 41% 0.0 mm CLR
18:14 22.0 °C 8.1 °C 1018.5 hPa ESE 16.1 km/h 20.9 km/h 41% 0.0 mm CLR
18:19 22.0 °C 8.1 °C 1018.6 hPa NNE 14.0 km/h 24.1 km/h 41% 0.0 mm CLR
18:24 21.8 °C 8.3 °C 1018.6 hPa NE 14.0 km/h 24.1 km/h 42% 0.0 mm CLR
18:29 21.9 °C 8.1 °C 1018.6 hPa NE 14.8 km/h 27.4 km/h 41% 0.0 mm CLR
18:34 21.7 °C 8.2 °C 1018.5 hPa NNE 14.8 km/h 16.7 km/h 42% 0.0 mm CLR
18:39 21.7 °C 8.2 °C 1018.5 hPa East 15.6 km/h 24.1 km/h 42% 0.0 mm CLR
18:44 21.9 °C 8.1 °C 1018.5 hPa ENE 15.6 km/h 17.2 km/h 41% 0.0 mm CLR
18:49 21.8 °C 8.3 °C 1018.6 hPa NNE 13.7 km/h 16.7 km/h 42% 0.0 mm CLR
18:54 21.8 °C 8.3 °C 1018.6 hPa NE 13.7 km/h 18.5 km/h 42% 0.0 mm CLR
18:59 21.8 °C 8.7 °C 1018.6 hPa NE 13.7 km/h 14.8 km/h 43% 0.0 mm CLR
19:04 21.7 °C 8.6 °C 1018.4 hPa NE 13.7 km/h 25.9 km/h 43% 0.0 mm CLR
19:09 21.8 °C 8.7 °C 1018.4 hPa ENE 13.0 km/h 22.0 km/h 43% 0.0 mm CLR
19:14 21.8 °C 8.7 °C 1018.4 hPa NE 13.0 km/h 22.2 km/h 43% 0.0 mm CLR
19:19 21.8 °C 8.7 °C 1018.6 hPa NE 13.7 km/h 14.8 km/h 43% 0.0 mm CLR
19:24 21.9 °C 8.7 °C 1018.6 hPa ENE 13.7 km/h 16.7 km/h 43% 0.0 mm CLR
19:29 21.9 °C 8.7 °C 1018.6 hPa NE 11.1 km/h 18.5 km/h 43% 0.0 mm CLR
19:34 21.9 °C 8.7 °C 1018.6 hPa NE 11.1 km/h 16.7 km/h 43% 0.0 mm CLR
19:39 21.9 °C 8.7 °C 1018.6 hPa NNE 11.1 km/h 15.6 km/h 43% 0.0 mm CLR
19:44 21.9 °C 8.7 °C 1018.6 hPa ENE 11.1 km/h 18.5 km/h 43% 0.0 mm CLR
19:49 21.8 °C 8.7 °C 1018.7 hPa NNE 13.7 km/h 13.0 km/h 43% 0.0 mm CLR
19:54 21.7 °C 8.6 °C 1018.7 hPa ENE 13.7 km/h 22.2 km/h 43% 0.0 mm CLR
19:59 21.6 °C 8.5 °C 1018.7 hPa NE 12.2 km/h 15.6 km/h 43% 0.0 mm CLR
20:04 21.6 °C 8.5 °C 1019.0 hPa NE 12.2 km/h 20.4 km/h 43% 0.0 mm CLR
20:09 21.4 °C 8.3 °C 1019.0 hPa NNE 13.7 km/h 22.2 km/h 43% 0.0 mm CLR
20:14 21.4 °C 8.3 °C 1019.0 hPa NNE 13.7 km/h 18.5 km/h 43% 0.0 mm CLR
20:19 21.2 °C 8.1 °C 1019.2 hPa ESE 11.9 km/h 18.5 km/h 43% 0.0 mm CLR
20:24 21.1 °C 8.0 °C 1019.2 hPa East 11.9 km/h 18.5 km/h 43% 0.0 mm CLR
20:29 21.0 °C 8.3 °C 1019.2 hPa NE 13.7 km/h 9.3 km/h 44% 0.0 mm CLR
20:34 20.9 °C 8.5 °C 1019.5 hPa NE 13.7 km/h 20.4 km/h 45% 0.0 mm CLR
20:39 20.8 °C 8.8 °C 1019.5 hPa NE 9.5 km/h 14.8 km/h 46% 0.0 mm CLR
20:44 20.7 °C 8.3 °C 1019.5 hPa ENE 9.5 km/h 16.7 km/h 45% 0.0 mm CLR
20:49 20.5 °C 8.2 °C 1019.7 hPa East 10.3 km/h 14.8 km/h 45% 0.0 mm CLR
20:54 20.4 °C 7.4 °C 1019.7 hPa NE 10.3 km/h 16.1 km/h 43% 0.0 mm CLR
20:59 20.3 °C 6.9 °C 1019.7 hPa ENE 10.3 km/h 15.6 km/h 42% 0.0 mm CLR
21:04 20.3 °C 6.6 °C 1020.0 hPa NE 10.3 km/h 14.8 km/h 41% 0.0 mm CLR
21:09 20.2 °C 6.2 °C 1020.0 hPa NNE 10.0 km/h 16.7 km/h 40% 0.0 mm CLR
21:14 20.1 °C 6.1 °C 1020.0 hPa NE 10.0 km/h 11.1 km/h 40% 0.0 mm CLR
21:19 20.0 °C 6.3 °C 1020.2 hPa NE 8.4 km/h 13.0 km/h 41% 0.0 mm CLR
21:24 19.9 °C 6.2 °C 1020.2 hPa NE 8.4 km/h 8.4 km/h 41% 0.0 mm CLR
21:29 19.9 °C 6.6 °C 1020.2 hPa ENE 6.4 km/h 11.1 km/h 42% 0.0 mm CLR
21:34 19.8 °C 6.5 °C 1020.4 hPa East 6.4 km/h 7.4 km/h 42% 0.0 mm CLR
21:39 19.7 °C 6.4 °C 1020.4 hPa East 6.4 km/h 8.7 km/h 42% 0.0 mm CLR
21:44 19.6 °C 6.7 °C 1020.4 hPa NNE 6.4 km/h 13.0 km/h 43% 0.0 mm CLR
21:49 19.4 °C 6.8 °C 1020.5 hPa NE 6.9 km/h 9.3 km/h 44% 0.0 mm CLR
21:54 19.3 °C 7.1 °C 1020.5 hPa North 6.9 km/h 11.1 km/h 45% 0.0 mm CLR
21:59 19.2 °C 7.6 °C 1020.5 hPa NE 6.9 km/h 13.0 km/h 47% 0.0 mm CLR
22:04 19.0 °C 7.7 °C 1020.8 hPa NE 6.9 km/h 11.1 km/h 48% 0.0 mm CLR
22:09 18.9 °C 8.2 °C 1020.8 hPa North 7.6 km/h 11.1 km/h 50% 0.0 mm CLR
22:14 18.9 °C 8.6 °C 1020.8 hPa NE 7.6 km/h 13.0 km/h 51% 0.0 mm CLR
22:19 18.8 °C 8.7 °C 1021.1 hPa NNE 8.4 km/h 9.3 km/h 52% 0.0 mm CLR
22:24 18.7 °C 8.9 °C 1021.1 hPa NE 8.4 km/h 13.0 km/h 53% 0.0 mm CLR
22:29 18.6 °C 9.1 °C 1021.1 hPa NE 8.4 km/h 11.1 km/h 54% 0.0 mm CLR
22:34 18.6 °C 9.4 °C 1021.4 hPa North 8.4 km/h 7.4 km/h 55% 0.0 mm CLR
22:39 18.6 °C 9.7 °C 1021.4 hPa ENE 5.8 km/h 13.0 km/h 56% 0.0 mm CLR
22:44 18.5 °C 10.1 °C 1021.4 hPa NE 5.8 km/h 11.1 km/h 58% 0.0 mm CLR
22:49 18.4 °C 10.2 °C 1021.7 hPa NE 8.4 km/h 11.1 km/h 59% 0.0 mm CLR
22:54 18.4 °C 10.5 °C 1021.7 hPa NE 8.4 km/h 9.3 km/h 60% 0.0 mm CLR
22:59 18.4 °C 10.5 °C 1021.7 hPa NE 8.4 km/h 13.0 km/h 60% 0.0 mm CLR
23:04 18.3 °C 10.4 °C 1021.8 hPa North 8.4 km/h 7.4 km/h 60% 0.0 mm CLR
23:09 18.3 °C 10.7 °C 1021.8 hPa NNE 6.4 km/h 9.3 km/h 61% 0.0 mm CLR
23:14 18.3 °C 10.7 °C 1021.8 hPa NE 6.4 km/h 10.0 km/h 61% 0.0 mm CLR
23:19 18.2 °C 10.6 °C 1022.0 hPa NE 6.4 km/h 7.4 km/h 61% 0.0 mm CLR
23:24 18.2 °C 10.8 °C 1022.0 hPa NE 6.4 km/h 7.4 km/h 62% 0.0 mm CLR
23:29 18.2 °C 11.1 °C 1022.0 hPa NE 5.8 km/h 7.4 km/h 63% 0.0 mm CLR
23:34 18.2 °C 11.1 °C 1022.1 hPa North 5.8 km/h 7.4 km/h 63% 0.0 mm CLR
23:39 18.1 °C 10.9 °C 1022.1 hPa NNE 5.8 km/h 7.4 km/h 63% 0.0 mm CLR
23:44 18.0 °C 11.1 °C 1022.1 hPa NE 5.8 km/h 9.3 km/h 64% 0.0 mm CLR
23:49 17.9 °C 11.0 °C 1022.2 hPa NE 5.0 km/h 8.4 km/h 64% 0.0 mm CLR
23:54 17.9 °C 10.8 °C 1022.2 hPa ENE 5.0 km/h 9.3 km/h 63% 0.0 mm CLR
23:59 17.8 °C 10.7 °C 1022.2 hPa NE 6.4 km/h 7.4 km/h 63% 0.0 mm CLR
Murcia-Puente Tocinos, España
Compliments of Weather Underground - 2.75 mb

La estación de MeteoMurcia.com, publica sus datos en los siguientes proyectos:

Weather Underground PWS IMURCIAP2 Meteoclimatic www.awekas.at

W3Counter
Web Analytics